Torna al catalogo

STARLINK-34749

AttivoComunicazioniSSO
NORAD 65675·PAYLOAD·🇺🇸 United States

Lanciato Sep 19, 2025 da Vandenberg Space Force Base

Loading…

Prossimi Passaggi (prossime 24 ore)

TLE

AggiornatoSource: CelesTrak SupGP

Epoca: Sep 15, 2026, 03:56 UTC

1 65675C 25211Z   26258.16437500 -.00021574  00000+0 -67009-3 0  2582
2 65675  97.2831 298.5001 0001218  93.4080  39.4828 15.33432303    14

Traccia STARLINK-34749 in tempo reale con AllMySat

Download on the App Store